KD5UIG Weather Reports


Display with metric or nautical units.
time (UTC)temp
F
wind
direction
speed
MPH
gust
MPH
rain 1hr
in
rain 24hr
in
rain mn
in
humidity
%
barometer
mb
20260506215559 69 102 2.0 13.0 0.00 0.02 0.02 61 1013.2
20260506215058 69 69 3.0 13.0 0.00 0.02 0.02 62 1013.2
20260506214559 69 61 2.0 9.0 0.00 0.02 0.02 61 1013.2
20260506214056 69 70 2.0 9.0 0.00 0.02 0.02 61 1013.3
20260506213555 69 72 1.0 8.0 0.00 0.02 0.02 60 1013.5
20260506213107 69 98 1.0 6.0 0.00 0.02 0.02 60 1013.6
20260506212555 70 12 1.0 6.0 0.00 0.02 0.02 61 1013.6
20260506212058 68 0 2.0 5.0 0.00 0.02 0.02 62 1013.8
20260506211556 67 0 2.0 8.0 0.00 0.02 0.02 63 1013.9
20260506211055 68 19 2.0 8.0 0.00 0.02 0.02 62 1013.7
20260506210555 68 20 2.0 8.0 0.00 0.02 0.02 63 1013.5
20260506210105 68 86 1.0 8.0 0.00 0.02 0.02 61 1013.5
20260506205558 68 58 1.0 5.0 0.00 0.02 0.02 63 1013.8
20260506205056 68 44 1.0 5.0 0.00 0.02 0.02 62 1013.8
20260506204558 68 61 0.0 5.0 0.00 0.02 0.02 63 1013.7
20260506204056 67 0 2.0 7.0 0.00 0.02 0.02 63 1013.9
20260506203555 67 355 1.0 7.0 0.00 0.02 0.02 62 1013.9
20260506203123 67 32 1.0 5.0 0.00 0.02 0.02 63 1014.0
20260506202556 67 5 1.0 7.0 0.00 0.02 0.02 62 1014.0
20260506202056 67 49 1.0 7.0 0.00 0.02 0.02 65 1014.2
20260506201602 67 0 3.0 7.0 0.00 0.02 0.02 62 1014.4
20260506201057 67 0 1.0 6.0 0.00 0.02 0.02 60 1014.3
20260506200601 68 91 0.0 7.0 0.00 0.02 0.02 63 1014.5
20260506195556 67 41 1.0 5.0 0.00 0.02 0.02 63 1014.7
20260506195055 67 5 0.0 7.0 0.00 0.02 0.02 62 1014.6
20260506194605 67 5 1.0 7.0 0.00 0.02 0.02 62 1014.8
20260506194055 67 0 1.0 5.0 0.00 0.02 0.02 62 1014.8
20260506193555 67 0 1.0 6.0 0.00 0.02 0.02 62 1014.8
20260506193105 66 78 2.0 6.0 0.00 0.02 0.02 61 1014.7
20260506192555 67 0 0.0 7.0 0.00 0.02 0.02 63 1014.7
20260506192055 66 0 2.0 7.0 0.00 0.02 0.02 61 1014.5
20260506191559 66 61 2.0 8.0 0.00 0.02 0.02 63 1014.5
20260506191057 65 0 1.0 8.0 0.00 0.02 0.02 64 1014.4
20260506190556 65 27 3.0 8.0 0.00 0.02 0.02 63 1014.1
20260506190100 65 13 2.0 8.0 0.00 0.02 0.02 63 1014.0
20260506185602 65 5 1.0 9.0 0.00 0.02 0.02 65 1014.2
20260506185055 64 26 1.0 9.0 0.00 0.02 0.02 67 1014.2
20260506184556 63 79 2.0 8.0 0.00 0.02 0.02 66 1014.2
20260506184055 63 344 1.0 8.0 0.00 0.02 0.02 68 1014.2
20260506183558 62 100 3.0 9.0 0.00 0.02 0.02 69 1014.2
20260506183104 61 0 2.0 11.0 0.00 0.02 0.02 70 1014.3
20260506182555 61 22 4.0 11.0 0.00 0.02 0.02 69 1014.4
20260506182055 61 22 3.0 9.0 0.00 0.02 0.02 69 1014.1
20260506181556 60 333 2.0 9.0 0.00 0.02 0.02 68 1014.2
20260506181056 61 0 2.0 10.0 0.00 0.02 0.02 69 1014.4
20260506180556 60 25 2.0 10.0 0.00 0.02 0.02 69 1014.2
20260506175556 60 24 1.0 8.0 0.00 0.02 0.02 70 1014.2
20260506175059 60 311 2.0 10.0 0.00 0.02 0.02 71 1014.5
20260506174556 59 320 3.0 13.0 0.00 0.02 0.02 71 1014.5
20260506174055 59 70 4.0 13.0 0.00 0.02 0.02 72 1014.1
20260506173555 58 93 3.0 11.0 0.00 0.02 0.02 73 1014.6
20260506173104 58 65 3.0 9.0 0.00 0.02 0.02 75 1014.5
20260506172555 56 42 2.0 10.0 0.00 0.02 0.02 77 1014.6
20260506172056 56 13 3.0 10.0 0.00 0.02 0.02 76 1014.6
20260506171556 55 63 2.0 10.0 0.00 0.02 0.02 77 1014.6
20260506171055 55 67 4.0 10.0 0.00 0.02 0.02 77 1014.9
20260506170556 55 328 2.0 11.0 0.00 0.02 0.02 77 1015.0
20260506170107 55 80 3.0 11.0 0.00 0.02 0.02 78 1015.3
20260506165555 54 84 1.0 9.0 0.00 0.02 0.02 78 1015.0
20260506165056 54 71 1.0 7.0 0.00 0.02 0.02 79 1014.9
20260506164615 54 50 1.0 10.0 0.00 0.02 0.02 78 1014.9
20260506164056 54 9 3.0 10.0 0.00 0.02 0.02 79 1015.0
20260506163555 54 98 1.0 11.0 0.00 0.02 0.02 79 1014.6
20260506163104 54 13 3.0 11.0 0.00 0.02 0.02 79 1014.5
20260506162555 54 71 2.0 8.0 0.01 0.02 0.02 80 1014.6
20260506162055 54 34 2.0 7.0 0.01 0.02 0.02 80 1014.6
20260506161557 54 67 1.0 7.0 0.02 0.02 0.02 81 1014.8
20260506161058 54 44 0.0 11.0 0.02 0.02 0.02 82 1015.0
20260506160555 53 73 1.0 11.0 0.02 0.02 0.02 82 1015.0
20260506160109 53 30 2.0 9.0 0.02 0.02 0.02 82 1014.7
20260506155554 53 16 3.0 9.0 0.02 0.02 0.02 82 1014.8
20260506155056 53 9 3.0 8.0 0.02 0.02 0.02 82 1014.2
20260506154600 53 19 1.0 5.0 0.02 0.02 0.02 83 1014.1
20260506154056 53 69 1.0 7.0 0.02 0.02 0.02 83 1015.0
20260506153558 53 0 1.0 7.0 0.02 0.02 0.02 83 1015.0
20260506153100 53 15 1.0 4.0 0.02 0.02 0.02 82 1015.6
20260506152555 53 0 0.0 1.0 0.01 0.01 0.01 82 1016.1
20260506152056 53 0 0.0 2.0 0.01 0.01 0.01 82 1016.4
20260506151605 53 0 0.0 2.0 0.00 0.00 0.00 82 1016.7
20260506151055 53 26 0.0 3.0 0.00 0.00 0.00 82 1016.5
20260506150556 53 0 0.0 4.0 0.00 0.00 0.00 82 1016.2
20260506150109 53 0 0.0 4.0 0.00 0.00 0.00 82 1016.1
20260506145555 53 0 1.0 5.0 0.00 0.00 0.00 83 1015.1
20260506145055 52 9 1.0 6.0 0.00 0.00 0.00 83 1014.2
20260506144612 52 5 1.0 7.0 0.00 0.00 0.00 83 1014.7
20260506144055 52 25 1.0 7.0 0.00 0.00 0.00 83 1014.6
20260506143556 52 0 0.0 6.0 0.00 0.00 0.00 82 1014.8
20260506143054 52 0 1.0 6.0 0.00 0.00 0.00 82 1015.2
20260506142554 52 25 0.0 5.0 0.00 0.00 0.00 82 1015.2
20260506142055 52 0 2.0 5.0 0.00 0.00 0.00 82 1014.9
20260506141600 52 0 1.0 4.0 0.00 0.00 0.00 82 1014.9
20260506141055 52 0 0.0 4.0 0.00 0.00 0.00 81 1015.0
20260506140555 52 320 2.0 6.0 0.00 0.00 0.00 81 1015.2
20260506140057 52 360 1.0 8.0 0.00 0.00 0.00 81 1015.1
20260506135556 52 13 2.0 8.0 0.00 0.00 0.00 81 1015.0
20260506135056 52 349 2.0 7.0 0.00 0.00 0.00 81 1014.6
20260506134557 52 322 1.0 9.0 0.00 0.00 0.00 82 1014.4
20260506134059 52 340 2.0 9.0 0.00 0.00 0.00 82 1014.1
20260506133556 52 28 2.0 9.0 0.00 0.00 0.00 82 1013.8
20260506133109 52 57 1.0 7.0 0.00 0.00 0.00 82 1013.9
20260506132553 52 0 1.0 6.0 0.00 0.00 0.00 82 1014.1
20260506132058 52 281 1.0 7.0 0.00 0.00 0.00 82 1014.1
20260506131614 52 352 2.0 7.0 0.00 0.00 0.00 82 1014.0
20260506131056 52 12 1.0 7.0 0.00 0.00 0.00 82 1014.0
20260506130556 52 305 2.0 7.0 0.00 0.00 0.00 82 1013.7
20260506130054 52 5 1.0 8.0 0.00 0.00 0.00 82 1013.8
20260506125556 52 0 2.0 8.0 0.00 0.00 0.00 83 1013.5
20260506125115 52 16 2.0 5.0 0.00 0.00 0.00 82 1013.7
20260506124553 52 31 1.0 8.0 0.00 0.00 0.00 83 1013.6
20260506124055 52 0 2.0 8.0 0.00 0.00 0.00 82 1013.4
20260506123555 51 30 1.0 8.0 0.00 0.00 0.00 82 1013.6
20260506123057 51 342 2.0 8.0 0.00 0.00 0.00 82 1013.5
20260506122556 51 355 2.0 8.0 0.00 0.00 0.00 82 1013.4
20260506122054 51 334 3.0 8.0 0.00 0.00 0.00 82 1013.5
20260506121559 51 15 2.0 9.0 0.00 0.00 0.00 82 1013.4
20260506121055 51 355 3.0 9.0 0.00 0.00 0.00 82 1013.5
20260506120556 51 342 2.0 8.0 0.00 0.00 0.00 82 1013.3
20260506120103 51 330 2.0 8.0 0.00 0.00 0.00 82 1013.2
20260506115555 51 331 2.0 8.0 0.00 0.00 0.00 82 1013.4
20260506115056 52 34 3.0 8.0 0.00 0.00 0.00 81 1013.3
20260506114555 52 348 2.0 11.0 0.00 0.00 0.00 81 1013.2
20260506114058 52 58 3.0 11.0 0.00 0.00 0.00 81 1013.0
20260506113555 52 5 2.0 9.0 0.00 0.00 0.00 81 1013.0
20260506113056 52 355 2.0 10.0 0.00 0.00 0.00 81 1012.9
20260506112556 52 42 3.0 10.0 0.00 0.00 0.00 80 1012.8
20260506112057 52 323 4.0 10.0 0.00 0.00 0.00 79 1012.7
20260506111555 53 14 2.0 9.0 0.00 0.00 0.00 79 1012.3
20260506111055 53 344 3.0 9.0 0.00 0.00 0.00 78 1012.4
20260506110555 53 348 3.0 9.0 0.00 0.00 0.00 78 1012.4
20260506110113 53 9 2.0 9.0 0.00 0.00 0.00 77 1012.3
20260506105555 53 337 2.0 9.0 0.00 0.00 0.00 76 1012.3
20260506105054 54 338 4.0 9.0 0.00 0.00 0.00 76 1012.3
20260506104613 54 341 3.0 9.0 0.00 0.00 0.00 75 1012.0
20260506104054 54 333 3.0 10.0 0.00 0.00 0.00 75 1011.9
20260506103555 54 0 4.0 10.0 0.00 0.00 0.00 75 1012.1
20260506103054 54 355 2.0 8.0 0.00 0.00 0.00 75 1012.1
20260506102557 54 15 3.0 8.0 0.00 0.00 0.00 74 1011.9
20260506102059 54 360 3.0 8.0 0.00 0.00 0.00 74 1011.9
20260506101556 55 360 2.0 7.0 0.00 0.00 0.00 74 1011.9
20260506101057 55 338 2.0 9.0 0.00 0.00 0.00 74 1011.8
20260506100557 55 49 3.0 9.0 0.00 0.00 0.00 74 1011.8
20260506100111 55 28 2.0 9.0 0.00 0.00 0.00 74 1011.8
20260506095555 55 5 1.0 8.0 0.00 0.00 0.00 74 1011.6
20260506095055 55 360 3.0 8.0 0.00 0.00 0.00 74 1011.5
20260506094601 55 17 1.0 6.0 0.00 0.00 0.00 74 1011.5
20260506094055 55 5 1.0 6.0 0.00 0.00 0.00 74 1011.4
20260506093554 55 0 0.0 4.0 0.00 0.00 0.00 74 1011.4
20260506093112 55 45 1.0 4.0 0.00 0.00 0.00 74 1011.1
20260506092556 55 0 1.0 3.0 0.00 0.00 0.00 75 1011.1
20260506092056 56 0 0.0 3.0 0.00 0.00 0.00 75 1011.0
20260506091055 56 9 0.0 6.0 0.00 0.00 0.00 75 1010.8
20260506090557 56 360 1.0 6.0 0.00 0.00 0.00 74 1010.9
20260506090105 56 352 1.0 6.0 0.00 0.00 0.00 74 1010.8
20260506085555 56 5 1.0 6.0 0.00 0.00 0.00 74 1010.8
20260506085055 56 337 2.0 6.0 0.00 0.00 0.00 74 1010.7
20260506084631 56 0 1.0 6.0 0.00 0.00 0.00 74 1010.7
20260506084055 56 31 1.0 5.0 0.00 0.00 0.00 74 1010.7
20260506083556 56 13 1.0 8.0 0.00 0.00 0.00 75 1010.5
20260506083058 56 92 1.0 8.0 0.00 0.00 0.00 74 1010.6
20260506082557 56 0 1.0 8.0 0.00 0.00 0.00 74 1010.6
20260506082055 56 13 1.0 7.0 0.00 0.00 0.00 74 1010.6
20260506081559 56 22 2.0 7.0 0.00 0.00 0.00 74 1010.7
20260506081056 56 0 1.0 7.0 0.00 0.00 0.00 74 1010.6
20260506080559 56 5 1.0 7.0 0.00 0.00 0.00 75 1010.6
20260506073054 57 310 1.0 6.0 0.00 0.00 0.00 76 1010.2
20260506072555 57 0 2.0 7.0 0.00 0.00 0.00 75 1009.7
20260506072055 57 67 2.0 9.0 0.00 0.00 0.00 76 1009.7
20260506071558 57 70 2.0 9.0 0.00 0.00 0.00 75 1009.7
20260506071055 57 66 2.0 8.0 0.00 0.00 0.00 76 1009.7
20260506070555 57 71 2.0 8.0 0.00 0.00 0.00 76 1009.7
20260506062055 57 41 2.0 8.0 0.00 0.00 0.00 76 1010.1
20260506061559 57 5 0.0 4.0 0.00 0.00 0.00 76 1010.1
20260506061055 57 313 2.0 7.0 0.00 0.00 0.00 76 1010.2
20260506060556 58 0 1.0 9.0 0.00 0.00 0.00 76 1010.1
20260506051055 59 89 2.0 9.0 0.00 0.00 0.00 77 1010.4
20260506050556 59 306 2.0 9.0 0.00 0.00 0.00 77 1010.4
20260506045055 59 15 2.0 10.0 0.00 0.00 0.00 77 1010.3
20260506044553 59 289 2.0 10.0 0.00 0.00 0.00 78 1010.2
20260506044056 59 61 2.0 10.0 0.00 0.00 0.00 77 1010.2
20260506043555 59 348 3.0 9.0 0.00 0.00 0.00 77 1010.2
20260506043054 59 112 1.0 6.0 0.00 0.00 0.00 77 1010.3
20260506042555 59 352 2.0 8.0 0.00 0.00 0.00 77 1010.3
20260506042058 60 338 3.0 8.0 0.00 0.00 0.00 77 1010.2
20260506041608 60 26 1.0 8.0 0.00 0.00 0.00 78 1010.1
20260506041054 60 346 1.0 8.0 0.00 0.00 0.00 78 1010.0
20260506040555 60 88 2.0 8.0 0.00 0.00 0.00 78 1010.1
20260506040056 60 23 2.0 11.0 0.00 0.00 0.00 78 1010.1
20260506035555 60 9 1.0 11.0 0.00 0.00 0.00 78 1010.0
20260506035055 60 333 3.0 11.0 0.00 0.00 0.00 78 1009.9
20260506034557 61 317 3.0 8.0 0.00 0.00 0.00 78 1009.9
20260506034057 61 336 2.0 7.0 0.00 0.00 0.00 78 1009.7
20260506033557 61 30 3.0 9.0 0.00 0.00 0.00 78 1009.9
20260506033057 61 18 2.0 9.0 0.00 0.00 0.00 77 1009.6
20260506032555 61 29 2.0 9.0 0.00 0.00 0.00 77 1009.5
20260506032055 61 17 2.0 9.0 0.00 0.00 0.00 77 1009.4
20260506031558 62 26 2.0 7.0 0.00 0.00 0.00 77 1009.4
20260506031054 62 351 2.0 10.0 0.00 0.00 0.00 77 1009.4
20260506030557 62 335 2.0 10.0 0.00 0.00 0.00 77 1009.4
20260506030059 62 13 3.0 10.0 0.00 0.00 0.00 77 1009.4
20260506025555 62 17 2.0 8.0 0.00 0.00 0.00 77 1009.3
20260506025058 62 149 2.0 9.0 0.00 0.00 0.00 77 1009.4
20260506024555 63 11 2.0 9.0 0.00 0.00 0.00 77 1009.1
20260506024055 63 327 4.0 9.0 0.00 0.00 0.00 76 1008.9
20260506023556 63 347 2.0 7.0 0.00 0.00 0.00 76 1008.9
20260506023109 63 291 2.0 7.0 0.00 0.00 0.00 75 1008.7
20260506022555 63 360 2.0 9.0 0.00 0.00 0.00 75 1008.6
20260506022055 64 349 2.0 9.0 0.00 0.00 0.00 75 1008.4
20260506021617 64 31 3.0 9.0 0.00 0.00 0.00 74 1008.5
20260506021054 64 348 2.0 8.0 0.00 0.00 0.00 74 1008.0
20260506020555 65 32 3.0 8.0 0.00 0.00 0.00 74 1007.9
20260506020107 65 0 2.0 8.0 0.00 0.00 0.00 73 1007.8
20260506015555 66 138 3.0 8.0 0.00 0.00 0.00 73 1007.6
20260506015057 66 323 2.0 6.0 0.00 0.00 0.00 74 1007.5
20260506014604 66 0 0.0 6.0 0.00 0.00 0.00 74 1007.6
20260506014059 67 0 1.0 6.0 0.00 0.00 0.00 74 1007.6
20260506013555 67 0 0.0 3.0 0.00 0.00 0.00 73 1007.3
20260506013107 67 0 0.0 3.0 0.00 0.00 0.00 73 1007.1
20260506012555 67 333 0.0 4.0 0.00 0.00 0.00 72 1007.0
20260506012054 67 54 0.0 8.0 0.00 0.00 0.00 72 1007.0
20260506011617 67 61 1.0 8.0 0.00 0.00 0.00 72 1007.1
20260506011055 67 0 2.0 8.0 0.00 0.00 0.00 71 1006.7
20260506010555 68 22 1.0 5.0 0.00 0.00 0.00 71 1006.4
20260506010059 68 337 1.0 6.0 0.00 0.00 0.00 70 1006.2
20260506005558 68 34 2.0 6.0 0.00 0.00 0.00 70 1006.1
20260506005054 68 5 1.0 9.0 0.00 0.00 0.00 70 1006.3
20260506004558 68 38 2.0 9.0 0.00 0.00 0.00 70 1006.3
20260506004054 69 15 3.0 9.0 0.00 0.00 0.00 69 1006.3
20260506003555 69 325 2.0 11.0 0.00 0.00 0.00 69 1006.2
20260506003105 70 9 3.0 11.0 0.00 0.00 0.00 69 1006.1
20260506002623 70 12 2.0 6.0 0.00 0.00 0.00 69 1006.1
20260506002055 70 34 2.0 9.0 0.00 0.00 0.00 69 1005.9
20260506001556 71 307 2.0 9.0 0.00 0.00 0.00 68 1005.8
20260506001055 71 32 2.0 10.0 0.00 0.00 0.00 68 1005.8
20260506000555 71 26 3.0 10.0 0.00 0.00 0.00 67 1006.0
20260506000100 72 360 3.0 9.0 0.00 0.00 0.00 68 1006.1
20260505235554 72 351 2.0 9.0 0.00 0.00 0.00 67 1005.9
20260505235056 73 355 2.0 9.0 0.00 0.00 0.00 67 1005.7
20260505234556 73 355 2.0 9.0 0.00 0.00 0.00 67 1005.7
20260505234054 73 316 2.0 11.0 0.00 0.00 0.00 66 1005.7
20260505233555 73 14 3.0 11.0 0.00 0.00 0.00 65 1005.8
20260505233104 74 13 2.0 11.0 0.00 0.00 0.00 65 1005.6
20260505232555 74 360 3.0 11.0 0.00 0.00 0.00 65 1005.6
20260505232056 75 19 3.0 9.0 0.00 0.00 0.00 65 1005.6
20260505231611 75 336 2.0 9.0 0.00 0.00 0.00 64 1005.5
20260505231056 76 5 2.0 9.0 0.00 0.00 0.00 64 1005.7
20260505230555 77 5 4.0 15.0 0.00 0.00 0.00 62 1005.2
20260505230054 78 304 4.0 15.0 0.00 0.00 0.00 62 1005.5
20260505225555 78 36 3.0 11.0 0.00 0.00 0.00 61 1005.4
20260505225055 79 252 3.0 10.0 0.00 0.00 0.00 59 1005.6
20260505224603 80 19 3.0 10.0 0.00 0.00 0.00 59 1005.2
20260505224055 80 286 3.0 10.0 0.00 0.00 0.00 59 1005.1
20260505223554 81 30 2.0 8.0 0.00 0.00 0.00 58 1005.0
20260505223059 81 280 3.0 9.0 0.00 0.00 0.00 58 1004.9
20260505222557 82 277 3.0 9.0 0.00 0.00 0.00 57 1004.9
20260505222056 83 344 3.0 9.0 0.00 0.00 0.00 57 1004.9
20260505221603 83 355 2.0 9.0 0.00 0.00 0.00 57 1004.7
20260505221055 84 10 2.0 10.0 0.00 0.00 0.00 55 1004.5
20260505220555 85 305 3.0 12.0 0.00 0.00 0.00 54 1004.5